QUI SOM?

ITER5 és una empresa especialitzada en el cronometratge i gestió esportiva. Ens adrecem a les institucions públiques i privades, als clubs i associacions esportives per tal de proporcionar els nostres coneixements i recursos.

INFORMACIÓ
  • Complex la Caparrella. Ed. CEEI. 2.7 - 25192 - LLEIDA
  • Lat.: 41.599045 | Long.: 0.581511
  • 635-164-197 / 654-555-394
  • info@iter5.cat

Resultats Templers - Lleida - 10K - Edició 2018

Pos. Dorsal Nom T.Oficial
1 2 ANTONI CARULLA ABADAL 00:33:11
2 33 ROGER CAMPRUBÍ GALLET 00:33:51
3 320 JORDI TREPAT FONTANET 00:33:59
4 3 SANCHO AYALA ABAD 00:34:11
5 532 MARC EXPÓSITO PORTA 00:34:18
6 393 FRANCESC JOVE RIART 00:34:53
7 32 ALBERT CAMARASA SANSA 00:35:19
8 87 GERARD LÓPEZ GÓMEZ 00:35:49
9 236 ALEX SALINAS GÓMEZ 00:35:57
10 211 JOEL ADAN MIARNAU 00:36:19
11 367 XAVIER BADIA GARCIA 00:36:48
12 601 OIHAN SAYAR GARCÍA 00:36:57
13 366 SERGI BADIA GARCIA 00:38:05
14 223 JOSEP BERGUA MUÑOZ 00:38:08
15 138 GERARD ROCA PASCUAL 00:38:09
16 241 JORGE MORILLAS SANCHEZ 00:38:12
17 179 JORDI COS EXPÓSITO 00:38:18
18 4 MIREIA SOSA PÉREZ 00:38:23
19 218 MARIO GOMEZ LOZANO 00:38:31
20 226 MANEL OLIVA LEAL 00:38:39
21 352 XAVI GUTIÉRREZ RIU 00:38:49
22 170 GERARD VILÀ ALBIOL 00:38:58
23 353 STEVEN SHARP PERALTA 00:39:01
24 86 FRANCESC LLOVERAS NOGAREDA 00:39:03
25 42 MANEL CIRIA BONET 00:39:19
26 411 JAUME CODINA MEJON 00:39:22
27 210 JOAN TÉRMENS CANALS 00:39:24
28 355 ROSAMARI CARULLA ARGILÉS 00:39:25
29 356 MIGUEL FRESNO AMATE 00:39:26
30 227 SERGIO PEREZ LLENA 00:39:31
31 540 XAVIER OLIVA RODRIGUEZ 00:39:38
32 45 JOAN JORDI CLOP MANUEL 00:39:43
33 408 CESAR CALVILLO GALAN 00:39:45
34 145 ORIOL SABATE SALA 00:39:46
35 436 XAVIER GÁLLEGO REÑÉ 00:39:46
36 200 GERARD VILA SANTESMASES 00:39:57
37 281 OSCAR GARCIA SERRATE 00:40:02
38 168 POL VAQUÉ PIEDRAFITA 00:40:02
39 194 VICTOR FILLAT GARRIDO 00:40:03
40 425 ISIDRO PUIG SANCHIS 00:40:32
41 331 OSCAR FLORES ALARCIA 00:40:40
42 29 JOSEP MARIA CABRERA TRUCO 00:40:53
43 176 JOSE LUIS PEREZ TORRES 00:40:54
44 22 JORDI BOSCH MUNTAL 00:40:55
45 372 JOSEP MARIA ALEU ARDIACA 00:40:56
46 197 IVO MARC SANUY VALLES 00:40:59
47 339 ALBERT NOGUÉS I NOGUERA 00:41:06
48 430 TONI VERA VERA 00:41:08
49 184 FREDY DIAZ RODRIGUEZ 00:41:09
50 189 MARC MIRABALL GÓMEZ 00:41:13
51 183 NOEMÍ AUMEDES MARCH 00:41:16
52 31 JOSEP M CALUCHO SOLÉ 00:41:22
53 28 VICTOR CABALLERO CASTILLO 00:41:34
54 605 BRUNO DE MORAES 00:41:38
55 142 JORDI ROSANES BOSCH 00:41:39
56 277 JUANMA FERNANDEZ HORNERO 00:41:39
57 217 ANNA ARTAL ESCRIU 00:41:44
58 206 ALEIX CARBONELL GARCIA 00:41:44
59 125 GERARD PAGANO FARRAN 00:41:53
60 178 SANTI VILLEGAS GARCIA 00:41:57
61 186 ANTONI LLOBERA TORRES 00:42:08
62 402 JOAN NAVARRO MATEUS 00:42:09
63 382 SEBAS ZAFRA VALVERDE 00:42:11
64 378 JORDI ZARAGOZA BENDICHO 00:42:14
65 377 MANEL CAMPILLO BETBESÉ 00:42:14
66 9 GERARD ARAÑO PEREZ 00:42:23
67 204 PERE CASAS MURTRA 00:42:24
68 538 FRANCESC GIRAL ROYO 00:42:26
69 21 DANIEL BOSCH CAPDEVILA 00:42:41
70 51 JESUS ECHAUZ TRILLA 00:42:46
71 401 DIEGO PEREZ GALINDO 00:42:49
72 105 MOISES MEZCUA 00:42:51
73 611 ABRAHAM DOMINGUEZ 00:42:53
74 19 JOSE BENEITEZ MORON 00:42:56
75 326 XAVIER ISERN BIOSCA 00:43:09
76 587 IVAN SANZ SIURANETA 00:43:10
77 418 OSCAR JIMÉNEZ HORCAJADAS 00:43:15
78 559 HECTOR DRUDIS NOVELL 00:43:17
79 222 RAÜL BARADAD BENITEZ 00:43:20
80 74 JORGE GUERRERO RODRIGUEZ 00:43:20
81 370 ESTEBAN BADIAS MOLA 00:43:21
82 137 LLORENÇ RIBES RIBES 00:43:26
83 63 JOSE LUIS FORTON LARRUY 00:43:30
84 263 CLAUDIO CALIMAN 00:43:31
85 389 JUANJO MACÍAS BELTRÁN 00:43:31
86 221 JOSEP PALLAS CARRERA 00:43:35
87 324 SALVADOR VILA SANOU 00:43:37
88 257 DÍDAC ARQUÉ BADIA 00:43:41
89 182 FRANCESC SAURET GRAU 00:43:47
90 558 RAMON CIRIA BONET 00:43:48
91 216 XAVI TELLA CORNELLANA 00:43:58
92 437 FRANCISCO SABIDO CLAVERO 00:43:58
93 427 JOSEP TÀSIES BARGUÉS 00:43:59
94 416 SISCO GARCÍA ORTEGA 00:43:59
95 360 JORDI RIBES COMPANYS 00:44:05
96 361 QUIM SUMALLA SUAREZ 00:44:05
97 618 ANTONIO CALVO MOYA 00:44:09
98 11 ALBERT AUSÀS CORTAD 00:44:21
99 175 ALEX GUAL RIPOLL 00:44:27
100 122 DAVID ORRIOS ALBAREDA 00:44:31
101 256 MIGUEL ALONSO LORENZO 00:44:32
102 212 ROBERT VALLES ANGLES 00:44:33
103 58 BLAI FARRE JARANA 00:44:34
104 205 JORDI PONS SORA 00:44:38
105 498 JOSÉ LUIS MORALES RULL 00:44:56
106 357 JORDI MIRET BERROCAL 00:44:59
107 412 XAVI DE JUAN GONZALEZ 00:45:05
108 174 ROBERT GUAL CAMPABADAL 00:45:08
109 209 ALBERT RUBIÓ BALAGUÉ 00:45:11
110 373 JAUME CALDERÓ NOTARIO 00:45:14
111 7 CRISTINA ALCÍVAR 00:45:14
112 35 GONZALO CAO BADUELL 00:45:15
113 539 GERARD RODES 00:45:16
114 224 GERARD MACIÀ PAQUICO 00:45:18
115 489 ANTONIO LUQUE PEINADO 00:45:26
116 304 JORDI PONS CASAS 00:45:32
117 311 JUANJO QUIJANO TELLO 00:45:34
118 231 JOSEP MARIA SANTO SALVAT 00:45:34
119 15 MARIA BALCELLS RIUS 00:45:36
120 379 RAMON PETANAS SUBIES 00:45:36
121 135 ROGER RIBA LAFARGA 00:45:42
122 383 DAVID ESTRUCH PORCEL 00:45:42
123 289 ANNA LLOBERA MIRÓ 00:45:45
124 59 SERGI FARRE MERINO 00:45:45
125 94 OSCAR MALLADA SUILS 00:45:48
126 543 JORDI ROCA JOVE 00:45:51
127 363 JOSEP VENTURA ESPONA FERRER 00:45:52
128 287 JORDI JIMÉNEZ HORCAJADAS 00:46:01
129 242 RAMON SOBREVALS SALMONS 00:46:02
130 214 DAVID CABESTANY TIELL 00:46:03
131 410 JOAN CARLES CHARLES MILLAN 00:46:04
132 147 JOSEP LLUIS SARABIA JUSTE 00:46:09
133 600 SAMUEL ARÍS ORIOL 00:46:14
134 477 XAVI FARGUES GIMENO 00:46:16
135 167 JOSEP MARIA VAQUÉ CASTILLA 00:46:19
136 560 MAITE FARRAN FARRE 00:46:19
137 385 JESUS LOPEZ BOTANCH 00:46:22
138 439 PERE ESTEVE TUNICA 00:46:23
139 40 AMADEU CASSANYE SALA 00:46:25
140 299 ALEJANDRO MESA RICART 00:46:33
141 478 FRAN FONTANALS RIBES 00:46:33
142 358 JORDI MOLLÓ MARSAL 00:46:33
143 291 DAVID LÓPEZ REQUENA 00:46:38
144 160 JORDI TERRADO CASANOVAS 00:46:39
145 273 TONI DIAZ MEDINA 00:46:40
146 365 DANI ROL AGUDO 00:46:40
147 442 LUIS ARTURO GARCÍA FARRÉ 00:46:44
148 20 VICTOR BLANCO XUCLÀ 00:46:46
149 589 MARC TORRELLES MARTINEZ 00:46:57
150 128 ANDREA PÉREZ MARTÍN 00:47:02
151 258 PAU BARÓ DALFÓ 00:47:04
152 535 RAFAEL PERAMATO GUTIÉRREZ 00:47:07
153 201 FRANCISCO JOVE MARCH 00:47:10
154 400 FABIO FERNANDEZ DE JESÚS 00:47:13
155 476 JORDI FARGUES GIMENO 00:47:15
156 254 JAUME CASTELLÀ GRAELLS 00:47:16
157 422 JORDI NICOLAU INGLES 00:47:18
158 213 XAVIER SANTACANA MAS 00:47:21
159 8 JAVIER ARÁNTEGUI JIMÉNEZ 00:47:23
160 428 JOAN TEIXIDÓ PARRAMONA 00:47:30
161 322 TONI UCEDA SALES 00:47:37
162 177 IVAN SUÀREZ 00:47:38
163 275 JOSE RAFAEL DURAN PABON 00:47:39
164 593 ANA CATALÀ MASÓ 00:47:43
165 250 NACHO MAYORAL 00:47:43
166 306 JOAN PONS VILALTA 00:47:44
167 622 MIQUEL MOLINS 00:47:47
168 92 GORETTI MAJÓS FONTOVA 00:47:55
169 374 JOSE MARIA GARCÍA SÁNCHEZ 00:47:57
170 381 NATALIA VALERA BATALLA 00:47:59
171 467 VICTOR CAVERO SOLANS 00:48:00
172 310 DAVID PUJOL SOLSONA 00:48:04
173 519 BORJA RUANO BOZAL 00:48:05
174 563 ISAAC GARCÍA RAMÍREZ 00:48:05
175 225 XAVI MOR LARA 00:48:05
176 295 MIQUEL MARTI FAJARDO 00:48:09
177 315 RUBEN ROMERO PEREZ 00:48:13
178 155 RAFA SERRANO OCAÑA 00:48:16
179 623 JORDI BARALDES 00:48:23
180 240 CARLOS GÓMEZ DE CASTRO 00:48:24
181 302 LLUÍS PÀMIES LLACH 00:48:26
182 38 XAVIER CARBONELL ESTEBE 00:48:27
183 612 EMILIANO PARDO 00:48:28
184 388 ELISEO DEL OLMO MOYA 00:48:33
185 283 ROBERTO GOMEZ SARO 00:48:37
186 375 JOSE MILLA MORA 00:48:38
187 235 GERARD JUANOS VILLALTA 00:48:41
188 228 JOEL PORCEL DEL OLMO 00:48:42
189 185 ALBERT GADEA LLEVOT 00:48:44
190 500 VICTOR MUÑOZ ARREDONDO 00:48:47
191 492 ALICIA MARTIN SERRANO 00:48:47
192 529 DAVID VALLESPÍ MARTINEZ 00:48:52
193 521 VICTOR RUIZ PORTO 00:48:53
194 399 GILBERT BERTRAN COMA 00:48:55
195 150 FRANCESC SEGURA SANCHO 00:48:59
196 DANIEL MARTÍNEZ OSUNA 00:49:04
197 267 JOSE MANUEL CASTILLO FERNANDEZ 00:49:09
198 440 OSCAR FERMIÑÁN MIRÓ 00:49:11
199 85 JUDIT LLOVERA 00:49:13
200 602 MIREIA MARIN MUÑOZ 00:49:19
201 384 JOSEP IGNASI REVES REVES 00:49:28
202 619 TOMAS ALBA SÀNCHEZ 00:49:30
203 113 JOEL MORENO BERENGUER 00:49:31
204 392 VICTOR SANZ CAÑELLES 00:49:33
205 114 LUCIA MORENO SANZ 00:49:33
206 215 JOAN CARLES PURCALLA PEREZ 00:49:35
207 550 HANNAH ROSE ALLABEN 00:49:38
208 CARLOS DIAZ-ALEJO VALVERDE 00:49:42
209 394 MIGUEL ANGEL MIRO VISUS 00:49:42
210 395 VICTOR POYATOS GIL 00:49:43
211 610 ENRIC VILALTA MIR 00:49:44
212 286 JAUME MARIÀ HUGUET PÉREZ 00:49:46
213 252 JOSEP ALCONCHEL CABRERA 00:49:46
214 305 OSCAR PONS FARRAN 00:49:52
215 447 MARC DIAZ MARTI 00:49:54
216 307 JOSE A. PORTOLES FIGUEROA 00:49:56
217 561 FERRAN FARRAN FARRE 00:49:56
218 424 JULI PAULS VERDU 00:49:56
219 156 CARME SERRES GONZALEZ 00:50:01
220 570 JOSEP MATEU 00:50:02
221 359 MERITXELL MOLLÓ MARSAL 00:50:02
222 319 CRISTIAN SUAREZ PEREZ 00:50:06
223 232 TXÚS NOGUÉS NOGUERA 00:50:08
224 154 ALEJANDRO SERRANO LOOEZ 00:50:14
225 398 MANEL SANCHO HERRERA 00:50:16
226 56 ROBERT FARRÀ PALLEROLS 00:50:17
227 484 DAVID HUGUET CASANOVAS 00:50:17
228 452 PAU SERVETÓ MAYA 00:50:20
229 573 JUAN MAYORAL VILLAITODO 00:50:20
230 75 ABEL GUERRERO YESTE 00:50:22
231 590 JUANJO VALGAÑON 00:50:23
232 603 JOEL ROCAMORA CAMPALANS 00:50:23
233 53 TONI ESCALONA MELINES 00:50:23
234 107 XAVIER MONTAÑOLA CHANCHO 00:50:24
235 282 GEMMA GASA COMPANYS 00:50:26
236 297 IVAN MARTINEZ HERRERA 00:50:28
237 248 JOSE LUIS MARIN LOPEZ 00:50:33
238 364 ANGEL PELEGRÍ GABARRÓ 00:50:41
239 146 ALICIA SALILLAS TERUEL 00:50:42
240 108 EUGENI MONTULL MIMBRERA 00:50:47
241 429 IDOIA VALMAYOR SAFONT 00:50:52
242 438 DANIEL BARO ALONSO 00:50:52
243 102 LLUIS MAURI RAMON 00:50:53
244 487 MONICA LAZARO PALLAS 00:50:53
245 564 ALBERT GENE VILIMELIS 00:50:56
246 313 ALEX RODRIGUEZ PRIM 00:50:56
247 288 JOSE LUIS JORGE HERNANDEZ 00:51:00
248 549 JOSÉ MANUEL SÁNCHEZ LACAMBRA 00:51:00
249 134 IVAN QUILEZ 00:51:03
250 391 XAVIER OLIVART REMOLINS 00:51:08
251 208 SANTI OMS VILANOVA 00:51:10
252 26 ESTEVE BRUGULAT CUÑÉ 00:51:14
253 362 IRMA ZAVIRIUCHA 00:51:15
254 193 JOSÉ MANUEL RODRÍGUEZ CASAL 00:51:17
255 280 ANDRES GARCIA SANCHEZ 00:51:18
256 300 JOSEP MIMBRERA CUENCA 00:51:20
257 165 JOSEP VALL ESQUERDA 00:51:21
258 417 MONTSE HERRERA DORADO 00:51:27
259 159 JUAN ANTONIO SOLE RUIZ 00:51:28
260 468 JORDI CORTÉS MARTINEZ 00:51:32
261 104 OCTAVIO MELÚS SERÓN 00:51:38
262 481 ENRIC GALLART LUCERO 00:51:41
263 124 ROSER ORTEU MATEU 00:51:42
264 421 ALFREDO MARTÍN CORPORALES 00:51:43
265 497 MARTA MÒDOL NAVARRO 00:51:48
266 23 CONSOL BOSCH PIJUAN 00:51:50
267 613 MÒNICA VILA CASTILLO 00:51:52
268 586 ALEJANDRO SANS DIAZ 00:51:52
269 312 MIQUEL ÀNGEL RICO REVERTE 00:51:52
270 445 ANNA SANCHIS JOU 00:51:55
271 553 ALBERT BEGUÉ FARRÉ 00:51:58
272 369 JOSE ANTONIO MIGUEL CAUSAPE 00:51:59
273 572 JORDI MAYORAL VILLAITODO 00:51:59
274 43 MJOSE CLARIANA BATLLE 00:52:01
275 598 MANUEL FERNÀNDEZ URRUTIA 00:52:08
276 531 SONIA ZAPATER ESTOPA 00:52:17
277 453 XAVIER ZAPATER ESTOPÀ 00:52:17
278 140 SANDRA RODRIGUEZ ORCAJO 00:52:29
279 354 XAVI SOTO ROPERO 00:52:33
280 441 DELFÍN FORNÓS SARDÀ 00:52:34
281 41 ANNA CAZALLA BRINGUE 00:52:34
282 451 ABEL MORENO JUBANY 00:52:45
283 190 ALBERT BAIGET PIQUE 00:52:49
284 284 LAIA GUASCH BALCELLS 00:52:54
285 604 LAURA ESPIA MONSÓ 00:52:54
286 488 JORDINA LLABERIA TORRELLES 00:52:58
287 380 EVA PUIGREDON BADIA 00:53:02
288 569 MARINA LÓPEZ SEUMA 00:53:06
289 91 MIGUEL ANGEL LUQUE LASTRA 00:53:06
290 469 JESÚS COSTA ABIZANDA 00:53:10
291 580 FERRAN PRAT SANCHEZ 00:53:12
292 272 ALFONSO DE LA SERNA MEZCUA 00:53:15
293 64 AURORA GARCIA MIRO 00:53:16
294 192 XAVI SAMPER URBANO 00:53:22
295 239 XAVIER CARRILLO ALIANA 00:53:22
296 585 ANGEL RODRÍGUEZ DE LA PAZ REGOL 00:53:23
297 518 RICARD ROSELL POLO 00:53:24
298 592 ENRIC ORMO RODRIGUEZ 00:53:24
299 57 NOEMI FARRE ESTANY 00:53:24
300 10 DOLORS ARESTE MUR 00:53:24
301 567 PERE LIRIO RUBINAT 00:53:29
302 251 JORDI MORENO MARTINEZ 00:53:32
303 576 XAVIER NOGUERO ESTADA 00:53:35
304 456 OSCAR GARCIA JUSTICIA 00:53:38
305 62 ANTONI FERRER RODIE 00:53:47
306 83 MARTA LARRUY MIRANDA 00:53:47
307 293 JOSEP MARFULL OROMÍ 00:53:54
308 69 CARMEN GIL ALOS 00:53:56
309 480 RAMON FORNOS BLANCH 00:54:02
310 253 ANGEL CASTELLS 00:54:04
311 234 SILVIA CALZADA CINTAS 00:54:05
312 233 OCTAVI BENAGES IBARS 00:54:05
313 433 CRISTINA MASIP GRACIA 00:54:08
314 333 JOSE M. HIJANO DÍAZ 00:54:08
315 461 ALEX BIOSCA ALBERT 00:54:08
316 584 JORDI RICART PIFARRE 00:54:11
317 55 GERARD ESTEVE NEGRE 00:54:13
318 460 CECILIA BALABAN 00:54:13
319 419 NOEMÍ LORCA DURÁN 00:54:14
320 207 GICU DANILA 00:54:18
321 318 PEADAR STAGG 00:54:19
322 290 PEDRO LOPEZ IGUAL 00:54:21
323 247 DANIEL ARREDONDO RODRIGUEZ 00:54:22
324 259 MANUEL BLANCO LOPEZ 00:54:25
325 554 GERARD BONET GIRÓN 00:54:27
326 123 MAGDA ORTEU CORTES 00:54:29
327 50 JUANJO CORTÉS SERRAT 00:54:35
328 298 NEUS MASCARILLA MADRE 00:54:40
329 70 OSKAR GIL BARRIO 00:54:40
330 446 ANTONI RIOS ESTER 00:54:47
331 133 MONTSE PUIG VELANDO 00:54:48
332 78 JOSEP RAMON ISANTA GARCIA 00:54:48
333 591 JORDI XANDRI 00:54:49
334 79 MONTSE JAUSET MORAN 00:55:01
335 95 DANI MARTIN RODRIGUEZ 00:55:03
336 345 SALVADOR RUBIO CURCO 00:55:08
337 334 ANGELS MAGALLON CORTADA 00:55:09
338 328 ISIDRE DOMENECH GARCÍA 00:55:09
339 344 OSCAR RODRIGUEZ AGUADO 00:55:09
340 188 MARC FEIXAS PERERA 00:55:09
341 340 ENRIC ORMO I RIBES 00:55:09
342 199 ALBERT CORTÉS TEIXIDÓ 00:55:09
343 349 ABEL TEIXIDÓ ALBAREDA 00:55:09
344 336 JORDI MOLINS MARQYES 00:55:09
345 330 ARNAU FEIXAS PERERA 00:55:10
346 346 ROBERTO SANCHEZ FARRE 00:55:10
347 342 CARLOS PEGUERA ANORO 00:55:10
348 332 JOSE VTE HERNANDEZ 00:55:10
349 347 FRANCESC SEGURA I FLOR 00:55:10
350 337 XAVIER MONNÉ 00:55:10
351 341 JORDI PANADÉS BAILÓN 00:55:11
352 350 JOSEP VICENTE SERRANO 00:55:11
353 574 IVAN MIÑAMBRES CAVIA 00:55:11
354 89 MARIA ELENA LÓPEZ TRUCO 00:55:12
355 238 SALVADOR JOVELLS HUGUET 00:55:18
356 387 GLÒRIA ABELLA FALCÓ 00:55:18
357 541 VANESSA BRIZ VICENTE 00:55:22
358 448 DAVID SARROCA POLO 00:55:23
359 583 FELIX REDONDO HONRADO 00:55:24
360 568 PATRICIA LOPERA ARÉVALO 00:55:24
361 557 JAUME CASALS BRENUY 00:55:25
362 301 JOSEP MARIA MIRADA DONISA 00:55:25
363 49 ESTER CORTÉS ALONSO 00:55:34
364 386 PERE SORRIBES QUEROL 00:55:34
365 599 CARLA REQUENA SOLE 00:55:42
366 323 JOAN VALLS HERNANDEZ 00:55:44
367 335 XAVIER MIRÓ CARBONELL 00:55:49
368 449 JUANJO GARCÍA POMAR 00:55:49
369 565 ANGEL-ANDREU JIMENEZ CHAUBEL 00:56:08
370 455 JOSEP MESALLES SANS 00:56:08
371 12 PATRICIA AYALA CORONEL 00:56:13
372 249 JOAN RUEDA PERRAMON 00:56:14
373 505 FERRAN OLIU BOSCH 00:56:22
374 523 JOSE ANTONIO SANCHO RODELAS 00:56:30
375 100 OLGA MASIP BONASTRE 00:56:43
376 285 GUILLERMO HERVERA 00:56:45
377 279 RODRIGO GAETE HARZENETTER 00:56:47
378 172 LLUÍS VILAPLANA SOLE 00:56:52
379 495 TONI MICHANS OTAL 00:56:52
380 528 MARTA VALLES VALLS 00:56:53
381 457 DANIEL JIMÉNEZ 00:56:56
382 414 ANNA FONTOVA PONS 00:57:04
383 98 ELISABETH MAS GONZALEZ 00:57:05
384 579 ANNA PLANELL VALLVERDU 00:57:05
385 180 SANTI DE LA PUENTE MARTORELL 00:57:06
386 409 SANTI CAPDEVILA GUIU 00:57:06
387 271 JORDI DE LA CASA MARTINEZ 00:57:06
388 552 EDUARD ARAGUAS RUIZ 00:57:14
389 420 SANDRA MALCA SANDOVAL 00:57:16
390 255 JOAN MANEL ALMARAZ FERNANDEZ 00:57:17
391 294 YOLANDA MARGINET MENESES 00:57:17
392 229 ANNA SANGRÀ CASALS 00:57:22
393 230 FRANCESC SANGRÀ PASCUAL 00:57:23
394 423 RUBEN PASCUAL RODRIGUEZ 00:57:24
395 614 OTTO PEREZ ECHEVERRIA 00:57:24
396 597 ABEL CORPA SARLÉ 00:57:25
397 444 NATALIA MOLINA PRUNERA 00:57:31
398 376 PERE ROS VIDAL 00:57:35
399 34 RAFA CANO MARTÍN 00:57:37
400 499 EMILI MORRERES LÓPEZ 00:57:38
401 73 JONATHAN GIRON BARBECHO 00:57:44
402 99 MONTSE MASIP ARAGONES 00:57:45
403 515 MARTA RICART 00:57:48
404 181 RAMON MONTANÉ CLOS 00:57:50
405 173 JOAN CARLES BONET URIACH 00:57:59
406 407 JOAN RAMON BUIXADERA BENSENY 00:58:02
407 82 JORDI LAMBEA SANTONJA 00:58:06
408 582 JOSEP MARIA PUIGPINOS MAZUQUE 00:58:07
409 158 ALBERT SOLÉ MAURI 00:58:07
410 520 ALBERTO JOSÉ RUBIO ALCANTARA 00:58:13
411 479 NÚRIA FORNELLS CASTELLÓ 00:58:13
412 269 MIQUEL ANGEL CHAVERO BARBECHO 00:58:18
413 594 JESUS CASTELLO I SOLÈ 00:58:18
414 454 ENRIC MARTI ARFELIS 00:58:20
415 191 MODEST GRAUS NABAU 00:58:25
416 556 MOISES CAMUÑAS GOMEZ 00:58:33
417 141 JOSEP ROGER MALFEITO 00:58:41
418 109 JAUME MONTULL MIMBRERA 00:58:59
419 562 ALBERT FERNANDEZ BORREGUERO 00:59:16
420 110 JOAN MONTULL MIMBRERA 00:59:18
421 415 LAURA GARCÍA LUNA 00:59:28
422 325 JAUME ZAPATER TORRES 00:59:46
423 220 MONTSE PUIG JIMENEZ 00:59:55
424 126 PERE PALANCAR 01:00:11
425 115 RAMON MORRERES SISÓ 01:00:12
426 474 NÚRIA ESTEVE LATORRE 01:00:13
427 575 ALBA NIEVAS VIÑALS 01:00:19
428 396 MARTA PRATDEPADUA PEDROS 01:00:20
429 292 CARLOS LOZANO JIMENEZ 01:00:20
430 81 LIRIA LAITA MASANES 01:00:26
431 18 CESAR J. BÉJAR EGIDO 01:00:29
432 106 ISIDRE MODOL GUILLAMET 01:00:32
433 397 TERESA PRATS MASGORET 01:00:41
434 338 FIDEL NAVARRO PINTADO 01:00:51
435 314 JOAN ROGÉS FORNS 01:00:56
436 581 IGNASI PRAT SARRI 01:01:14
437 577 AMANDA PALACIOS CORBELLA 01:01:19
438 405 AURORA BARTRA QUILEZ 01:01:22
439 278 RAMON GABERNET FONT 01:01:38
440 65 IGNASI GARCIA SECADURAS 01:01:46
441 71 SÒNIA GIL GUIRADO 01:01:46
442 555 ESTHER BUIL 01:01:46
443 595 ALBERT FERNÀNDEZ MIR 01:01:51
444 450 IVAN MOLAS BUZON 01:02:04
445 463 KARLA CANÉ GASULL 01:02:11
446 501 MÒNICA MUSSONS CAMAÑES 01:02:12
447 551 MIQUEL ANTILLACH DATSIRA 01:02:16
448 244 PURI RAMOS VILCHES 01:02:33
449 506 LOURDES PEREZ 01:02:36
450 90 CRISTINA LUCAS MORENO 01:02:57
451 426 ISABEL SANCHEZ ATIENZA 01:03:12
452 435 GERMÁN VIDAL CABRERA 01:03:12
453 413 JORDI FIGUERAS COSTA 01:03:12
454 546 MARIONA MARTINEZ BANDA 01:03:12
455 432 BLAI MARTINEZ SANCHEZ 01:03:12
456 434 JUANJO RUIZ MORAL 01:03:12
457 246 ROBERT ARIAS NIETO 01:03:12
458 547 MARTA ORPELLA COSTAFREDA 01:03:13
459 265 XAVIER CASADELLA QUER 01:03:21
460 317 ALEX SANCHEZ CARMONA 01:03:43
461 566 ELISABETH JUSTICIA RUIZ 01:04:04
462 121 IMMA ORO PEREMIQUEL 01:04:22
463 625 JAUME BERNIS CASTELLS 01:04:29
464 261 MARIA CABALLÉ 01:04:32
465 148 ROSA SAURA ARILLA 01:04:33
466 243 ESTHER MARGINET MENESES 01:05:08
467 245 RAMON VILELLA SERRAS 01:05:26
468 542 XISCO MIRAS XISCO 01:05:26
469 268 FCO MANUEL CHAVERO BARBECHO 01:05:29
470 530 ROSA VILASECA 01:05:30
471 525 IMMA SAURA ARILLA 01:05:36
472 621 MARTA BASOLS 01:06:12
473 371 MARTA GARCIA BARBA 01:07:58
474 517 NURIA ROS GARCIA 01:07:58
475 533 ANTONI DE OJEDA I TORRES 01:08:01